Location: Mococo
(38.0255°N, 122.1161°W)
Time: 03:56:45
(UTC+00:00)

Cosmos 1503 Rocket - Visible Passes

Search period start: 14 May 2026 00:00
Search period end: 24 May 2026 00:00
Orbit: 748 x 786 km, 74.0° (Epoch: 13 May)

Date Brightness Start Highest point End Pass type
(mag) Time Alt. Az. Time Alt. Az. Time Alt. Az.
14 May 5.0 05:42:32 10° N 05:47:07 31° ENE 05:47:12 31° ENE visible
14 May 5.8 07:24:40 10° NW 07:27:26 24° WNW 07:27:26 24° WNW visible
15 May 5.7 05:05:56 10° NNE 05:09:30 18° ENE 05:10:36 17° ENE visible
15 May 4.8 06:46:51 10° NNW 06:50:51 44° WNW 06:50:51 44° WNW visible
16 May 6.2 04:30:32 10° NE 04:31:46 11° NE 04:33:00 10° ENE visible
16 May 3.9 06:09:23 10° NNW 06:14:18 81° NNW 06:14:18 81° NNW visible
17 May 4.2 05:32:09 10° N 05:37:11 51° ENE 05:37:46 48° E visible
17 May 6.1 07:15:34 10° WNW 07:18:01 16° W 07:18:01 16° W visible
18 May 5.1 04:55:12 10° N 04:59:41 29° ENE 05:01:16 25° E visible
18 May 5.3 06:37:12 10° NW 06:41:31 29° W 06:41:31 29° W visible
19 May 5.7 04:18:38 10° NNE 04:22:04 18° ENE 04:24:48 12° E visible
19 May 4.3 05:59:25 10° NNW 06:04:26 53° WSW 06:05:03 50° SW visible
20 May 3.8 05:21:58 10° NNW 05:27:09 85° ENE 05:28:37 48° SSE visible
21 May 4.4 04:44:46 10° N 04:49:45 48° ENE 04:52:12 27° SE visible
21 May 6.0 06:28:00 10° NW 06:31:19 17° W 06:32:28 16° WSW visible
22 May 5.1 04:07:50 10° N 04:12:15 28° ENE 04:15:51 14° ESE visible
22 May 5.3 05:49:44 10° NW 05:54:14 31° W 05:56:06 24° SW visible
23 May 4.4 05:11:59 10° NNW 05:17:02 56° WSW 05:19:46 26° S visible
